Tracking 22438 objects as of 25-Feb-2021
HD Live streaming from Space Station
objects crossing your sky now

FREGAT DEB

Track FREGAT DEB now!
10-day predictions


NORAD ID: 46398
Int'l Code: 2011-037LB
Perigee: 453.2 km
Apogee: 2,607.9 km
Inclination: 51.3 °
Period: 116.5 minutes
Semi major axis: 7901 km
RCS: Unknown
Launch date: July 18, 2011
Source: Commonwealth of Independent States (former USSR) (CIS)
Launch site: TYURATAM MISSILE AND SPACE COMPLEX (TTMTR)

Note: This is SATELLITE DEBRIS
aabbcc
Your satellite tracking list
Your tracking list is empty




NASA's NSSDC Master Catalog

Two Line Element Set (TLE):
1 46398U 11037LD  21055.47010225  .00218358  00000-0  43233-1 0  9999
2 46398  51.2951 102.9642 1363518 173.1162 189.0728 12.36044427 22177
Source of the keplerian elements: AFSPC